DAL1710 PANC-PACV

Flight info

Callsign DAL1710
Flight time 0h 53m
Altitude 21000
Route NOEND4 NOEND JOH
Aircraft B752/M-SDE2E3FGHIJ3J4J7RWXY/LB1

Departure

Time 2026-04-26 14:22
Airport Ted Stevens Anchorage International Airport (PANC)

Arrival

Time 2026-04-26 15:15
Airport Merle K (Mudhole) Smith Airport (PACV)
Time Latitude Longitude Altitude Speed Heading
2026-04-26 13:55 61.17212 -149.98416 163 ft 0 kts 358°
2026-04-26 13:55 61.17281 -149.98569 162 ft 1 kts 107°
2026-04-26 14:10 61.17284 -149.98590 163 ft 2 kts 94°
2026-04-26 14:11 61.17277 -149.98650 163 ft 2 kts 58°
2026-04-26 14:11 61.17268 -149.98673 162 ft 2 kts 40°
2026-04-26 14:11 61.17255 -149.98689 163 ft 2 kts 22°
2026-04-26 14:12 61.17240 -149.98697 163 ft 2 kts
2026-04-26 14:12 61.17226 -149.98695 163 ft 2 kts 347°
2026-04-26 14:12 61.17212 -149.98688 163 ft 1 kts 346°
2026-04-26 14:12 61.17211 -149.98688 162 ft 0 kts 346°
2026-04-26 14:14 61.17226 -149.98700 162 ft 7 kts 330°
2026-04-26 14:15 61.17220 -149.98857 163 ft 17 kts 227°
2026-04-26 14:15 61.17134 -149.99037 163 ft 17 kts 241°
2026-04-26 14:15 61.17122 -149.99274 163 ft 15 kts 270°
2026-04-26 14:15 61.17120 -149.99481 163 ft 14 kts 273°
2026-04-26 14:16 61.17124 -149.99602 163 ft 0 kts 272°
2026-04-26 14:19 61.17125 -149.99629 163 ft 4 kts 273°
2026-04-26 14:19 61.17127 -149.99707 163 ft 6 kts 272°
2026-04-26 14:19 61.17126 -149.99806 163 ft 7 kts 266°
2026-04-26 14:19 61.17146 -149.99873 163 ft 5 kts 339°
2026-04-26 14:20 61.17164 -149.99883 163 ft 0 kts 346°
2026-04-26 14:21 61.17175 -149.99889 163 ft 4 kts 345°
2026-04-26 14:21 61.17337 -149.99983 163 ft 62 kts 344°
2026-04-26 14:21 61.18041 -150.00382 164 ft 145 kts 345°
2026-04-26 14:21 61.19167 -150.00992 605 ft 185 kts 347°
2026-04-26 14:22 61.20405 -150.01698 1643 ft 195 kts 335°
2026-04-26 14:22 61.21597 -150.03430 2152 ft 221 kts 322°
2026-04-26 14:22 61.22853 -150.05391 2880 ft 236 kts 326°
2026-04-26 14:22 61.24204 -150.07359 3789 ft 242 kts 326°
2026-04-26 14:23 61.25596 -150.09346 4693 ft 249 kts 327°
2026-04-26 14:23 61.27023 -150.11346 5640 ft 253 kts 328°
2026-04-26 14:23 61.28649 -150.12642 6489 ft 256 kts 358°
2026-04-26 14:23 61.30387 -150.12053 7359 ft 256 kts 29°
2026-04-26 14:24 61.31765 -150.09851 8221 ft 256 kts 47°
2026-04-26 14:24 61.33022 -150.07236 9109 ft 259 kts 47°
2026-04-26 14:24 61.34282 -150.04556 9905 ft 265 kts 53°
2026-04-26 14:24 61.35141 -150.01099 10297 ft 280 kts 81°
2026-04-26 14:25 61.35127 -149.96965 10727 ft 295 kts 106°
2026-04-26 14:25 61.34285 -149.92986 11085 ft 313 kts 125°
2026-04-26 14:25 61.32772 -149.89552 11424 ft 332 kts 140°
2026-04-26 14:25 61.30994 -149.86252 11745 ft 352 kts 136°
2026-04-26 14:26 61.29229 -149.82651 12430 ft 359 kts 135°
2026-04-26 14:26 61.27526 -149.78815 13140 ft 365 kts 127°
2026-04-26 14:26 61.26311 -149.74190 13835 ft 372 kts 110°
2026-04-26 14:26 61.25606 -149.69023 14491 ft 378 kts 105°
2026-04-26 14:27 61.24920 -149.63657 15028 ft 387 kts 105°
2026-04-26 14:27 61.24300 -149.58197 15607 ft 395 kts 101°
2026-04-26 14:27 61.23759 -149.52628 16264 ft 399 kts 102°
2026-04-26 14:27 61.23196 -149.46983 16747 ft 408 kts 101°
2026-04-26 14:28 61.22611 -149.41132 17340 ft 414 kts 102°
2026-04-26 14:28 61.22036 -149.35269 17835 ft 422 kts 101°
2026-04-26 14:28 61.21466 -149.29244 18360 ft 429 kts 102°
2026-04-26 14:28 61.20882 -149.23141 18783 ft 438 kts 101°
2026-04-26 14:29 61.20291 -149.16985 19463 ft 440 kts 101°
2026-04-26 14:29 61.19685 -149.10704 20045 ft 444 kts 101°
2026-04-26 14:29 61.19080 -149.04471 20763 ft 444 kts 101°
2026-04-26 14:29 61.18468 -148.98206 20854 ft 449 kts 101°
2026-04-26 14:30 61.17854 -148.91948 20862 ft 443 kts 101°
2026-04-26 14:30 61.17236 -148.85683 20841 ft 439 kts 101°
2026-04-26 14:30 61.16622 -148.79491 20859 ft 442 kts 101°
2026-04-26 14:30 61.16001 -148.73257 20870 ft 444 kts 101°
2026-04-26 14:31 61.15384 -148.67087 20871 ft 441 kts 101°
2026-04-26 14:31 61.14756 -148.60860 20888 ft 440 kts 101°
2026-04-26 14:31 61.14132 -148.54713 20907 ft 441 kts 102°
2026-04-26 14:31 61.13227 -148.48610 20930 ft 442 kts 112°
2026-04-26 14:32 61.11852 -148.42995 20923 ft 441 kts 123°
2026-04-26 14:32 61.10185 -148.37738 20902 ft 440 kts 125°
2026-04-26 14:32 61.08467 -148.32461 20896 ft 437 kts 126°
2026-04-26 14:32 61.06768 -148.27341 20889 ft 437 kts 127°
2026-04-26 14:33 61.05030 -148.22157 20940 ft 441 kts 127°
2026-04-26 14:33 61.03278 -148.16966 20961 ft 440 kts 127°
2026-04-26 14:33 61.01532 -148.11816 20962 ft 440 kts 127°
2026-04-26 14:33 60.99773 -148.06653 21020 ft 442 kts 127°
2026-04-26 14:34 60.98022 -148.01524 21028 ft 442 kts 127°
2026-04-26 14:34 60.96254 -147.96358 21023 ft 442 kts 127°
2026-04-26 14:34 60.94500 -147.91243 21020 ft 442 kts 127°
2026-04-26 14:34 60.92726 -147.86081 20982 ft 439 kts 127°
2026-04-26 14:35 60.90978 -147.81010 20989 ft 440 kts 127°
2026-04-26 14:35 60.89203 -147.75877 20968 ft 441 kts 127°
2026-04-26 14:35 60.87423 -147.70731 20967 ft 440 kts 127°
2026-04-26 14:35 60.85669 -147.65674 20976 ft 440 kts 127°
2026-04-26 14:36 60.83884 -147.60545 21012 ft 442 kts 127°
2026-04-26 14:36 60.82117 -147.55475 21021 ft 442 kts 127°
2026-04-26 14:36 60.80335 -147.50372 21027 ft 441 kts 127°
2026-04-26 14:36 60.78559 -147.45296 21028 ft 441 kts 127°
2026-04-26 14:37 60.76775 -147.40212 21033 ft 441 kts 127°
2026-04-26 14:37 60.74997 -147.35152 21020 ft 442 kts 127°
2026-04-26 14:37 60.73200 -147.30054 21033 ft 442 kts 128°
2026-04-26 14:37 60.71395 -147.24940 21021 ft 442 kts 128°
2026-04-26 14:38 60.69602 -147.19875 21015 ft 442 kts 128°
2026-04-26 14:38 60.67815 -147.14835 21024 ft 441 kts 128°
2026-04-26 14:38 60.66026 -147.09804 21020 ft 442 kts 128°
2026-04-26 14:38 60.64232 -147.04767 21026 ft 442 kts 128°
2026-04-26 14:39 60.62410 -146.99661 21028 ft 442 kts 129°
2026-04-26 14:39 60.60624 -146.94670 21020 ft 443 kts 128°
2026-04-26 14:39 60.58806 -146.89598 21035 ft 443 kts 128°
2026-04-26 14:39 60.56996 -146.84561 21024 ft 443 kts 128°
2026-04-26 14:40 60.55178 -146.79512 21029 ft 442 kts 128°
2026-04-26 14:40 60.53379 -146.74527 21033 ft 444 kts 128°
2026-04-26 14:40 60.51570 -146.69525 21021 ft 443 kts 128°
2026-04-26 14:40 60.49777 -146.64459 21036 ft 444 kts 124°
2026-04-26 14:41 60.48318 -146.58940 21028 ft 446 kts 113°
2026-04-26 14:41 60.47332 -146.52930 21037 ft 448 kts 103°
2026-04-26 14:41 60.46659 -146.46866 21029 ft 450 kts 102°
2026-04-26 14:41 60.45967 -146.40672 21036 ft 451 kts 102°
2026-04-26 14:42 60.45271 -146.34448 21029 ft 449 kts 103°
2026-04-26 14:42 60.44582 -146.28317 21018 ft 448 kts 103°
2026-04-26 14:42 60.43895 -146.22223 21017 ft 449 kts 103°
2026-04-26 14:42 60.43195 -146.16040 21020 ft 451 kts 103°
2026-04-26 14:43 60.42501 -146.09929 21024 ft 450 kts 103°
2026-04-26 14:43 60.41797 -146.03767 21032 ft 449 kts 103°
2026-04-26 14:43 60.41088 -145.97583 21037 ft 450 kts 103°
2026-04-26 14:43 60.40383 -145.91470 21045 ft 451 kts 103°
2026-04-26 14:44 60.39671 -145.85310 21017 ft 448 kts 103°
2026-04-26 14:44 60.38971 -145.79283 21012 ft 448 kts 103°
2026-04-26 14:44 60.38253 -145.73138 21026 ft 451 kts 103°
2026-04-26 14:44 60.37531 -145.66980 21015 ft 450 kts 103°
2026-04-26 14:45 60.36811 -145.60864 21040 ft 451 kts 103°
2026-04-26 14:45 60.36326 -145.56764 20825 ft 455 kts 103°
2026-04-26 14:45 60.35360 -145.48612 20248 ft 443 kts 103°
2026-04-26 14:45 60.34643 -145.42598 19846 ft 432 kts 103°
2026-04-26 14:46 60.33946 -145.36772 19430 ft 427 kts 104°
2026-04-26 14:46 60.33251 -145.30992 18986 ft 423 kts 105°
2026-04-26 14:46 60.32563 -145.25304 18561 ft 420 kts 105°
2026-04-26 14:46 60.31872 -145.19603 18143 ft 416 kts 105°
2026-04-26 14:47 60.31193 -145.14020 17720 ft 410 kts 105°
2026-04-26 14:47 60.30521 -145.08527 17295 ft 405 kts 105°
2026-04-26 14:47 60.29855 -145.03091 16862 ft 397 kts 105°
2026-04-26 14:47 60.29196 -144.97743 16441 ft 394 kts 105°
2026-04-26 14:48 60.28543 -144.92452 16022 ft 388 kts 105°
2026-04-26 14:48 60.27901 -144.87268 15607 ft 380 kts 105°
2026-04-26 14:48 60.27264 -144.82152 15198 ft 375 kts 105°
2026-04-26 14:48 60.26631 -144.77083 14803 ft 370 kts 105°
2026-04-26 14:49 60.26007 -144.72098 14409 ft 366 kts 105°
2026-04-26 14:49 60.25391 -144.67197 14010 ft 361 kts 106°
2026-04-26 14:49 60.24776 -144.62321 13625 ft 359 kts 105°
2026-04-26 14:49 60.24163 -144.57477 13236 ft 358 kts 105°
2026-04-26 14:50 60.23556 -144.52699 12868 ft 355 kts 105°
2026-04-26 14:50 60.22946 -144.47905 12494 ft 353 kts 105°
2026-04-26 14:50 60.22341 -144.43169 12124 ft 351 kts 105°
2026-04-26 14:50 60.21738 -144.38461 11760 ft 347 kts 105°
2026-04-26 14:51 60.21130 -144.33734 11422 ft 346 kts 106°
2026-04-26 14:51 60.20547 -144.29057 10979 ft 347 kts 102°
2026-04-26 14:51 60.20431 -144.24268 10450 ft 345 kts 84°
2026-04-26 14:51 60.21056 -144.19756 10427 ft 335 kts 65°
2026-04-26 14:52 60.22291 -144.15916 10190 ft 323 kts 48°
2026-04-26 14:52 60.23975 -144.13161 9795 ft 303 kts 27°
2026-04-26 14:52 60.25879 -144.12042 9630 ft 274 kts 359°
2026-04-26 14:52 60.27698 -144.12807 9545 ft 273 kts 331°
2026-04-26 14:53 60.29161 -144.15273 9448 ft 275 kts 303°
2026-04-26 14:53 60.29865 -144.18768 9324 ft 270 kts 275°
2026-04-26 14:53 60.29828 -144.22463 9164 ft 268 kts 263°
2026-04-26 14:53 60.29664 -144.26254 8970 ft 268 kts 264°
2026-04-26 14:54 60.29513 -144.29979 8805 ft 267 kts 264°
2026-04-26 14:54 60.29363 -144.33649 8629 ft 265 kts 264°
2026-04-26 14:54 60.29210 -144.37344 8445 ft 265 kts 264°
2026-04-26 14:54 60.29058 -144.41029 8263 ft 266 kts 264°
2026-04-26 14:55 60.28903 -144.44753 8088 ft 265 kts 264°
2026-04-26 14:55 60.28750 -144.48421 7927 ft 263 kts 265°
2026-04-26 14:55 60.28744 -144.52072 7756 ft 262 kts 275°
2026-04-26 14:55 60.29071 -144.55711 7598 ft 264 kts 283°
2026-04-26 14:56 60.29597 -144.59264 7428 ft 263 kts 288°
2026-04-26 14:56 60.30219 -144.62727 7263 ft 263 kts 290°
2026-04-26 14:56 60.30898 -144.66112 7085 ft 261 kts 291°
2026-04-26 14:56 60.31625 -144.69519 6923 ft 262 kts 292°
2026-04-26 14:57 60.32363 -144.72868 6742 ft 262 kts 293°
2026-04-26 14:57 60.33106 -144.76183 6580 ft 261 kts 294°
2026-04-26 14:57 60.33865 -144.79532 6411 ft 261 kts 294°
2026-04-26 14:57 60.34620 -144.82848 6233 ft 261 kts 294°
2026-04-26 14:58 60.35380 -144.86174 6063 ft 260 kts 294°
2026-04-26 14:58 60.36126 -144.89445 5863 ft 261 kts 294°
2026-04-26 14:58 60.36887 -144.92789 5477 ft 260 kts 294°
2026-04-26 14:58 60.37629 -144.96050 5296 ft 251 kts 294°
2026-04-26 14:59 60.38359 -144.99263 5134 ft 254 kts 294°
2026-04-26 14:59 60.39098 -145.02525 4959 ft 256 kts 294°
2026-04-26 14:59 60.39830 -145.05754 4781 ft 255 kts 294°
2026-04-26 14:59 60.40328 -145.07956 4655 ft 254 kts 294°
2026-04-26 15:00 60.41299 -145.12257 4419 ft 254 kts 294°
2026-04-26 15:00 60.42035 -145.15518 4244 ft 254 kts 294°
2026-04-26 15:00 60.42762 -145.18745 4058 ft 253 kts 294°
2026-04-26 15:00 60.43485 -145.21965 3790 ft 257 kts 294°
2026-04-26 15:01 60.44228 -145.25273 3305 ft 260 kts 295°
2026-04-26 15:01 60.44970 -145.28581 3131 ft 252 kts 295°
2026-04-26 15:01 60.45679 -145.31749 2953 ft 245 kts 294°
2026-04-26 15:01 60.46353 -145.34772 2875 ft 223 kts 294°
2026-04-26 15:02 60.46961 -145.37529 2598 ft 206 kts 295°
2026-04-26 15:02 60.47561 -145.40186 2713 ft 220 kts 295°
2026-04-26 15:02 60.48217 -145.43135 3270 ft 246 kts 294°
2026-04-26 15:02 60.48938 -145.46355 3790 ft 251 kts 294°
2026-04-26 15:03 60.49421 -145.49730 4305 ft 251 kts 270°
2026-04-26 15:03 60.49034 -145.53096 4838 ft 252 kts 239°
2026-04-26 15:03 60.47843 -145.55749 4988 ft 258 kts 211°
2026-04-26 15:03 60.46184 -145.56869 4971 ft 250 kts 181°
2026-04-26 15:04 60.44523 -145.56128 4983 ft 249 kts 151°
2026-04-26 15:04 60.43257 -145.53748 4989 ft 252 kts 124°
2026-04-26 15:04 60.42372 -145.50685 4966 ft 252 kts 123°
2026-04-26 15:04 60.41213 -145.48097 4978 ft 250 kts 137°
2026-04-26 15:05 60.40044 -145.45497 4960 ft 251 kts 131°
2026-04-26 15:05 60.39293 -145.43742 4950 ft 250 kts 132°
2026-04-26 15:05 60.37737 -145.40240 4953 ft 250 kts 133°
2026-04-26 15:05 60.36624 -145.37715 5525 ft 244 kts 133°
2026-04-26 15:06 60.35466 -145.35120 6275 ft 256 kts 133°
2026-04-26 15:06 60.34283 -145.32443 7006 ft 258 kts 129°
2026-04-26 15:06 60.33495 -145.29192 7652 ft 267 kts 103°
2026-04-26 15:06 60.33448 -145.25385 7607 ft 273 kts 83°
2026-04-26 15:07 60.33929 -145.18059 7417 ft 262 kts 84°
2026-04-26 15:07 60.34167 -145.14401 7330 ft 264 kts 84°
2026-04-26 15:07 60.34408 -145.10733 7239 ft 264 kts 84°
2026-04-26 15:08 60.34652 -145.07033 7130 ft 265 kts 83°
2026-04-26 15:08 60.34893 -145.03386 6953 ft 265 kts 83°
2026-04-26 15:08 60.35135 -144.99698 6734 ft 263 kts 84°
2026-04-26 15:08 60.35374 -144.96072 6485 ft 262 kts 82°
2026-04-26 15:09 60.36010 -144.92706 6237 ft 257 kts 53°
2026-04-26 15:09 60.37335 -144.90459 6018 ft 251 kts 23°
2026-04-26 15:09 60.39013 -144.89877 5802 ft 245 kts 352°
2026-04-26 15:09 60.40548 -144.91032 5519 ft 231 kts 320°
2026-04-26 15:10 60.41459 -144.93491 5313 ft 220 kts 289°
2026-04-26 15:10 60.41758 -144.95514 4991 ft 226 kts 283°
2026-04-26 15:10 60.42239 -144.99715 4287 ft 235 kts 283°
2026-04-26 15:10 60.42590 -145.02834 4028 ft 221 kts 282°
2026-04-26 15:11 60.42919 -145.05757 3778 ft 209 kts 283°
2026-04-26 15:11 60.43126 -145.08653 3259 ft 210 kts 268°
2026-04-26 15:11 60.43016 -145.11519 3005 ft 198 kts 263°
2026-04-26 15:11 60.42880 -145.14243 2722 ft 190 kts 263°
2026-04-26 15:12 60.42753 -145.16852 2727 ft 191 kts 264°
2026-04-26 15:12 60.42947 -145.19539 2746 ft 197 kts 293°
2026-04-26 15:12 60.43535 -145.22107 2603 ft 205 kts 294°
2026-04-26 15:12 60.44108 -145.24715 2327 ft 204 kts 294°
2026-04-26 15:13 60.44687 -145.27321 2054 ft 204 kts 294°
2026-04-26 15:13 60.45276 -145.29958 1778 ft 205 kts 294°
2026-04-26 15:13 60.45863 -145.32581 1499 ft 205 kts 294°
2026-04-26 15:13 60.46419 -145.35071 1265 ft 186 kts 295°
2026-04-26 15:14 60.46927 -145.37338 1022 ft 165 kts 295°
2026-04-26 15:14 60.47377 -145.39352 760 ft 149 kts 295°
2026-04-26 15:14 60.47805 -145.41171 492 ft 138 kts 296°
2026-04-26 15:14 60.48220 -145.42850 342 ft 133 kts 295°
2026-04-26 15:15 60.48555 -145.44586 202 ft 133 kts 291°
2026-04-26 15:15 60.48925 -145.46332 50 ft 133 kts 294°
2026-04-26 15:15 60.49271 -145.47900 30 ft 96 kts 295°
2026-04-26 15:15 60.49427 -145.48288 30 ft 21 kts 23°
2026-04-26 15:16 60.49519 -145.48171 29 ft 6 kts 95°
2026-04-26 15:16 60.49506 -145.48137 30 ft 6 kts 122°
2026-04-26 15:16 60.49472 -145.47961 30 ft 18 kts 114°
2026-04-26 15:16 60.49424 -145.47743 30 ft 12 kts 115°
2026-04-26 15:17 60.49401 -145.47644 30 ft 5 kts 116°
2026-04-26 15:17 60.49388 -145.47583 30 ft 7 kts 114°
2026-04-26 15:17 60.49367 -145.47466 30 ft 13 kts 93°
2026-04-26 15:17 60.49433 -145.47404 30 ft 9 kts 272°
2026-04-26 15:18 60.49426 -145.47424 30 ft 0 kts 181°